User: anonymous
Location: Montr�al
(45.5000°N, 73.5830°W)
Time: 08:27:24
(UTC-04:00)
Language:

Cosmos 1151 Rocket - Orbit

View from above orbital plane
View from above orbital plane
View from above satellite
View from above satellite

Ground track
Ground track

The orbit data is extracted from the following two-line orbital elements,

1 11672U 80005B   14275.13150398  .00000642  00000-0  68441-4 0  1428
2 11672 082.5133 292.6086 0016581 005.1128 056.2623 14.87253504876354
Epoch (UTC): 02 October 2014 03:09:21
Eccentricity: 0.0016581
inclination: 82.5133°
perigee height: 595 km
apogee height: 618 km
right ascension of ascending node: 292.6086°
argument of perigee: 5.1128°
revolutions per day: 14.87253504
mean anomaly at epoch: 56.2623°
orbit number at epoch: 87635

The dashed part of the orbit path shows where the satellite is in the earth's shadow,  

DLR